Location: Oshawa
(43.9000°N, 78.8670°W)
Time: 18:32:42
(UTC-04:00)

CZ-4C R/B - Visible Passes

Search period start: 30 May 2015 00:00
Search period end: 09 June 2015 00:00
Orbit: 428 x 534 km, 97.5° (Epoch: 29 May)

Date Brightness Start Highest point End Pass type
(mag) Time Alt. Az. Time Alt. Az. Time Alt. Az.
30 May 3.4 23:33:16 54° E 23:33:37 57° ENE 23:37:24 10° N visible
31 May 5.9 01:07:33 11° W 01:07:33 11° W 01:08:24 10° WNW visible
31 May 4.4 23:07:33 26° E 23:08:20 29° ENE 23:11:41 10° N visible
01 Jun 5.1 00:41:50 21° W 00:41:50 21° W 00:44:41 10° NW visible
01 Jun 5.3 22:41:50 14° E 22:43:05 16° ENE 22:45:31 10° NNE visible
02 Jun 4.0 00:16:07 42° W 00:16:09 42° W 00:19:50 10° NNW visible
02 Jun 3.0 23:50:23 76° S 23:50:41 88° WSW 23:54:34 10° NNW visible
03 Jun 3.8 23:24:39 40° ESE 23:25:19 44° ENE 23:29:02 10° N visible
04 Jun 5.6 00:58:57 14° W 00:58:59 14° W 01:01:01 10° WNW visible
04 Jun 4.8 22:58:56 20° E 23:00:01 23° ENE 23:03:10 10° NNE visible
05 Jun 4.7 00:33:13 27° W 00:33:18 27° W 00:36:36 10° NW visible
05 Jun 5.5 22:33:11 10° E 22:34:47 13° ENE 22:36:42 10° NE visible
06 Jun 3.5 00:07:28 53° WSW 00:07:43 55° W 00:11:33 10° NNW visible
06 Jun 3.2 23:41:44 60° SE 23:42:17 72° ENE 23:46:10 10° N visible
07 Jun 4.2 23:15:59 30° ESE 23:16:55 35° ENE 23:20:30 10° N visible
08 Jun 5.3 00:50:16 18° W 00:50:26 18° W 00:53:05 10° NW visible
08 Jun 5.1 22:50:14 16° E 22:51:36 19° ENE 22:54:27 10° NNE visible
